Location: Alafon
(8.4500°N, 4.2333°E)
Time: 01:46:27
(UTC+00:00)

USA 229 - Pass Details

Date: 05 July 2020
Orbit: 980 x 1233 km, 63.4° (Epoch: 24 June)

Event Time Altitude Azimuth Distance (km) Brightness Sun altitude
Rises 20:15:23 0° 337° (NNW) 4,087 7.5 -29.4°
Reaches altitude 10° 20:18:06 10° 337° (NNW) 3,146 6.8 -30.0°
Maximum altitude 20:25:45 88° 65° (ENE) 1,232 3.8 -31.6°
Enters shadow 20:26:14 81° 147° (SSE) 1,246 3.8 -31.7°
